Tracking 33747 objects as of 11-Apr-2026
HD Live streaming from Space Station
objects crossing your sky now

STARLINK-31842

Track STARLINK-31842 now!
10-day predictions
STARLINK-31842 is classified as:


NORAD ID: 59672
Int'l Code: 2024-084U
Perigee: 489.7 km
Apogee: 490.7 km
Inclination: 43.0 °
Period: 94.3 minutes
Semi major axis: 6861 km
RCS: Unknown
Launch date: May 6, 2024
Source: United States (US)
Launch site: AIR FORCE EASTERN TEST RANGE (AFETR)
Your satellite tracking list
Your tracking list is empty




NASA's NSSDC Master Catalog

Two Line Element Set (TLE):
1 59672U 24084U   26100.60838932 -.00000231  00000-0  11052-5 0  9996
2 59672  42.9970 218.1623 0000713 300.3419  59.7362 15.27583059109294
Source of the keplerian elements: AFSPC